Terminal Aerodrome Forecast
Issued by NWS Sterling, VA

Current Version | Previous Version | Graphics & Text | Print | Product List | Glossary On
Versions: 1 2 3 4 5 6 7 8 9 10 11 12 13 14 15 16 17 18 19 20 21
000
FTUS41 KLWX 271700
TAFDCA
TAF
KDCA 271731Z 2718/2818 17006KT P6SM FEW050
     FM271900 22006KT P6SM SCT050
     FM280000 00000KT P6SM BKN050
     FM280700 32008KT P6SM SCT250=

USA.gov is the U.S. government's official web portal to all federal, state and local government web resources and services.